OpenBCM V1.13 (Linux)

Packet Radio Mailbox

DB0FHN

[JN59NK Nuernberg]

 Login: GUEST





  
UA9FBV > KEPS     23.08.04 04:11l 151 Lines 3943 Bytes #999 (0) @ AMSAT
BID : ORB04235.O
Read: GUEST
Subj: Orbital Elements  04235.OSCAR
Path: DB0FHN<DB0RGB<OK0PPL<DB0RES<ER3KAZ<UA9FBV
Sent: 040823/0208Z @:UA9FBV.PRM.RUS.AS #:5878 [Perm] GATEWAY $:ORB04235.O
From: UA9FBV@UA9FBV.PRM.RUS.AS
To  : KEPS@AMSAT


HR AMSAT ORBITAL ELEMENTS FOR OSCAR SATELLITES
FROM WA5QGD FORT WORTH,TX August 22, 2004
SEND SUBSCRIBE/UNSUBSCRIBE TO majordomo@amsat.org ONLY
BID: ORB04235.O
TO ALL RADIO AMATEURS BT

Satellite: AO-07
Catalog number: 07530
Epoch time:      04235.75573752
Element set:     311
Inclination:      101.6774 deg
RA of node:       281.4396 deg
Eccentricity:    0.0012349
Arg of perigee:    93.4012 deg
Mean anomaly:     266.8473 deg
Mean motion:   12.53568861 rev/day
Decay rate:       -2.9e-07 rev/day^2
Epoch rev:           36225
Checksum:              301

Satellite: AO-10
Catalog number: 14129
Epoch time:      04235.18130004
Element set:      93
Inclination:       26.5654 deg
RA of node:        75.4888 deg
Eccentricity:    0.6025619
Arg of perigee:   117.6928 deg
Mean anomaly:     315.0596 deg
Mean motion:    2.05869632 rev/day
Decay rate:       -2.4e-07 rev/day^2
Epoch rev:           15937
Checksum:              305

Satellite: UO-11
Catalog number: 14781
Epoch time:      04235.47399766
Element set:     559
Inclination:       98.1788 deg
RA of node:       221.4303 deg
Eccentricity:    0.0008239
Arg of perigee:   235.7674 deg
Mean anomaly:     124.2766 deg
Mean motion:   14.78978055 rev/day
Decay rate:       7.06e-06 rev/day^2
Epoch rev:            9764
Checksum:              350

Satellite: RS-10/11
Catalog number: 18129
Epoch time:      04235.11273237
Element set:     490
Inclination:       82.9245 deg
RA of node:        99.3707 deg
Eccentricity:    0.0012484
Arg of perigee:   131.2846 deg
Mean anomaly:     228.9379 deg
Mean motion:   13.72743256 rev/day
Decay rate:        5.4e-07 rev/day^2
Epoch rev:           86004
Checksum:              304

Satellite: FO-20
Catalog number: 20480
Epoch time:      04235.56709840
Element set:     699
Inclination:       99.0427 deg
RA of node:       100.4767 deg
Eccentricity:    0.0540156
Arg of perigee:   196.4140 deg
Mean anomaly:     161.8851 deg
Mean motion:   12.83341356 rev/day
Decay rate:       -1.2e-07 rev/day^2
Epoch rev:           68119
Checksum:              301

Satellite: RS-12/13
Catalog number: 21089
Epoch time:      04234.24331921
Element set:     720
Inclination:       82.9242 deg
RA of node:       133.5001 deg
Eccentricity:    0.0028214
Arg of perigee:   192.4723 deg
Mean anomaly:     167.5737 deg
Mean motion:   13.74440283 rev/day
Decay rate:        6.0e-07 rev/day^2
Epoch rev:           67929
Checksum:              281

Satellite: RS-15
Catalog number: 23439
Epoch time:      04232.94144538
Element set:    0804
Inclination:      064.8141 deg
RA of node:       234.7278 deg
Eccentricity:    0.0154386
Arg of perigee:   009.8419 deg
Mean anomaly:     350.5471 deg
Mean motion:   11.27549982 rev/day
Decay rate:       -1.0e-07 rev/day^2
Epoch rev:           39742
Checksum:              314

Satellite: FO-29
Catalog number: 24278
Epoch time:      04234.25006391
Element set:     787
Inclination:       98.5845 deg
RA of node:       317.6933 deg
Eccentricity:    0.0349863
Arg of perigee:   233.1019 deg
Mean anomaly:     123.7587 deg
Mean motion:   13.52901888 rev/day
Decay rate:       -6.0e-08 rev/day^2
Epoch rev:           39563
Checksum:              341

Satellite: SO-33
Catalog number: 25509
Epoch time:      04235.45182958
Element set:     179
Inclination:       31.4285 deg
RA of node:       280.9996 deg
Eccentricity:    0.0355334
Arg of perigee:    75.3563 deg
Mean anomaly:     288.6167 deg
Mean motion:   14.27861873 rev/day
Decay rate:       2.97e-06 rev/day^2
Epoch rev:           30409
Checksum:              347

Satellite: AO-40
Catalog number: 26609
Epoch time:      04232.35317535
Element set:     426
Inclination:        9.9145 deg
RA of node:       346.5360 deg
Eccentricity:    0.7974178
Arg of perigee:   312.3740 deg
Mean anomaly:       3.9438 deg
Mean motion:    1.25586220 rev/day
Decay rate:      -2.07e-06 rev/day^2
Epoch rev:            1746
Checksum:              296



Read previous mail | Read next mail


 05.09.2026 06:37:08lGo back Go up